Drummond Island, MI

6:20 PM EST on December 14, 2017 (GMT -0500)
Drummond Island

Weather History for KDRM - February, 2013

Change the Weather History Date:

Saturday, February 23, 2013

  Actual Average (KCIU) Record (KCIU)
Temperature  
Mean Temperature 28 °F -  
Max Temperature 32 °F 34 °F 47 °F (1983)
Min Temperature 24 °F 14 °F -23 °F (1989)
Degree Days  
Heating Degree Days 37    
Moisture  
Dew Point 27 °F    
Average Humidity 95    
Maximum Humidity 100    
Minimum Humidity 83    
Precipitation  
Precipitation 0.00 in - - ()
Sea Level Pressure  
Sea Level Pressure 29.76 in    
Wind  
Wind Speed 2 mph (SW)    
Max Wind Speed 8 mph    
Max Gust Speed -    
Visibility 6 miles    
Events Snow    
Averages and records for this station are not official NWS values.
T = Trace of Precipitation, MM = Missing Value Source: NWS Daily Summary

Daily Weather History Graph

Daily Weather History Graph

Search for Another Location

Airport or City:

Trip Planner

Search our weather history database for the weather conditions in past years. The results will help you decide how hot, cold, wet, or windy it might be!

Date:

Astronomy

Feb. 23, 2013 Rise Set
Actual Time 7:23 AM EST 6:13 PM EST
Civil Twilight 6:53 AM EST 6:43 PM EST
Nautical Twilight 6:19 AM EST 7:18 PM EST
Astronomical Twilight 5:44 AM EST 7:52 PM EST
Moon 4:19 PM EST (2/23) 5:50 AM EST (2/23)
Length of Visible Light 11h 49m
Length of Day
10h 49m
Waxing Gibbous, 95% of the Moon is Illuminated
Feb 23
Waxing Gibbous
Feb 25
Full
Mar 4
Last Quarter
Mar 11
New
Mar 19
First Quarter

Hourly Weather History & Observations

Time (EST) Temp. Windchill Dew Point Humidity Pressure Visibility Wind Dir Wind Speed Gust Speed Precip Events Conditions
12:16 AM 27.3 °F 23.4 °F 27.3 °F 100% 29.80 in 1.5 mi ENE 3.5 mph - N/A Snow Light Snow
12:56 AM 27.3 °F 23.4 °F 27.1 °F 99% 29.80 in 3.0 mi East 3.5 mph - N/A Snow Light Snow
1:16 AM 27.5 °F - 27.3 °F 99% 29.79 in 2.5 mi Calm Calm - N/A Snow Light Snow
1:36 AM 27.5 °F 23.6 °F 27.3 °F 99% 29.78 in 2.5 mi ENE 3.5 mph - N/A Snow Light Snow
2:16 AM 27.5 °F - 27.3 °F 99% 29.78 in 5.0 mi Calm Calm - N/A Snow Light Snow
2:36 AM 27.5 °F - 27.3 °F 99% 29.77 in 7.0 mi Calm Calm - N/A Snow Light Snow
2:56 AM 27.1 °F - 27.1 °F 100% 29.76 in 7.0 mi Calm Calm - N/A Snow Light Snow
3:16 AM 27.1 °F - 27.1 °F 100% 29.76 in 4.0 mi Calm Calm - N/A Snow Light Snow
3:36 AM 27.0 °F - 27.0 °F 100% 29.76 in 7.0 mi Calm Calm - N/A Snow Light Snow
3:56 AM 27.5 °F - 27.5 °F 100% 29.75 in 3.0 mi Calm Calm - N/A Snow Light Snow
4:16 AM 27.1 °F - 27.1 °F 100% 29.75 in 4.0 mi Calm Calm - N/A Snow Light Snow
4:36 AM 26.6 °F - 26.6 °F 100% 29.75 in 4.0 mi Calm Calm - N/A Snow Light Snow
4:56 AM 26.1 °F - 26.1 °F 100% 29.75 in 4.0 mi Calm Calm - N/A Snow Light Snow
5:16 AM 26.1 °F - 26.1 °F 100% 29.74 in 5.0 mi Calm Calm - N/A Snow Light Snow
5:36 AM 25.7 °F - 25.7 °F 100% 29.75 in 10.0 mi Calm Calm - N/A Snow Light Snow
5:56 AM 25.7 °F - 25.7 °F 100% 29.74 in 10.0 mi Calm Calm - N/A   Overcast
6:16 AM 25.9 °F - 25.9 °F 100% 29.74 in 10.0 mi Calm Calm - N/A   Overcast
6:36 AM 25.7 °F - 25.7 °F 100% 29.74 in 10.0 mi Calm Calm - N/A   Overcast
6:56 AM 25.7 °F - 25.7 °F 100% 29.74 in 10.0 mi Calm Calm - N/A   Overcast
7:16 AM 25.7 °F - 25.7 °F 100% 29.75 in 5.0 mi Calm Calm - N/A Snow Light Snow
7:36 AM 25.7 °F - 25.7 °F 100% 29.75 in 7.0 mi Calm Calm - N/A Snow Light Snow
7:56 AM 26.1 °F - 26.1 °F 100% 29.75 in 5.0 mi Calm Calm - N/A Snow Light Snow
8:16 AM 26.8 °F - 26.8 °F 100% 29.75 in 3.0 mi Calm Calm - N/A Snow Light Snow
8:36 AM 26.4 °F - 26.4 °F 100% 29.75 in 4.0 mi Calm Calm - N/A Snow Light Snow
8:56 AM 26.6 °F - 26.6 °F 100% 29.75 in 2.5 mi Calm Calm - N/A Snow Light Snow
9:16 AM 28.0 °F - 28.0 °F 100% 29.74 in 3.0 mi Calm Calm - N/A Snow Light Snow
9:36 AM 28.8 °F - 28.8 °F 100% 29.74 in 2.5 mi Calm Calm - N/A Snow Light Snow
9:56 AM 29.7 °F 26.1 °F 29.3 °F 99% 29.74 in 2.5 mi SSW 3.5 mph - N/A Snow Light Snow
10:16 AM 30.0 °F 26.5 °F 29.3 °F 97% 29.74 in 3.0 mi SSW 3.5 mph - N/A Snow Light Snow
11:36 AM 31.1 °F 26.4 °F 30.2 °F 96% 29.74 in 1.5 mi SW 4.6 mph - N/A Snow Light Snow
11:56 AM 31.3 °F 25.6 °F 30.0 °F 95% 29.74 in 3.0 mi SW 5.8 mph - N/A Snow Light Snow
12:16 PM 31.5 °F 25.8 °F 29.8 °F 94% 29.74 in 7.0 mi SSW 5.8 mph - N/A   Overcast
12:36 PM 31.1 °F 25.4 °F 29.5 °F 94% 29.75 in 10.0 mi SW 5.8 mph - N/A   Overcast
12:56 PM 31.1 °F 23.7 °F 29.1 °F 92% 29.75 in 10.0 mi SSW 8.1 mph - N/A   Overcast
1:16 PM 31.6 °F 28.3 °F 28.9 °F 90% 29.74 in 7.0 mi WSW 3.5 mph - N/A   Overcast
1:36 PM 32.0 °F 26.4 °F 28.0 °F 85% 29.74 in 5.0 mi WSW 5.8 mph - N/A Snow Light Snow
1:56 PM 31.5 °F 26.8 °F 27.9 °F 87% 29.74 in 5.0 mi SW 4.6 mph - N/A Snow Light Snow
2:16 PM 31.6 °F 27.0 °F 27.5 °F 85% 29.74 in 7.0 mi SW 4.6 mph - N/A Snow Light Snow
2:36 PM 32.0 °F 27.5 °F 27.9 °F 85% 29.75 in 10.0 mi WSW 4.6 mph - N/A Snow Light Snow
2:56 PM 32.0 °F - 28.0 °F 85% 29.75 in 10.0 mi Calm Calm - N/A   Overcast
3:16 PM 32.0 °F 28.7 °F 28.2 °F 86% 29.75 in 3.0 mi West 3.5 mph - N/A Snow Light Snow
3:36 PM 31.8 °F 27.3 °F 29.1 °F 90% 29.75 in 1.2 mi SW 4.6 mph - N/A Snow Light Snow
3:56 PM 31.6 °F 27.0 °F 29.5 °F 92% 29.76 in 2.0 mi WSW 4.6 mph - N/A Snow Light Snow
4:16 PM 31.8 °F - 30.0 °F 93% 29.76 in 2.0 mi Calm Calm - N/A Snow Light Snow
4:36 PM 31.6 °F 27.0 °F 29.3 °F 91% 29.76 in 5.0 mi West 4.6 mph - N/A Snow Light Snow
4:56 PM 31.1 °F 27.7 °F 27.7 °F 87% 29.77 in 5.0 mi WNW 3.5 mph - N/A Snow Light Snow
5:16 PM 30.9 °F - 27.7 °F 88% 29.77 in 7.0 mi Calm Calm - N/A   Overcast
5:36 PM 30.9 °F - 27.3 °F 86% 29.77 in 10.0 mi Calm Calm - N/A   Overcast
5:56 PM 30.6 °F - 26.4 °F 85% 29.77 in 10.0 mi Calm Calm - N/A   Overcast
6:16 PM 29.8 °F - 25.5 °F 84% 29.77 in 10.0 mi Calm Calm - N/A   Overcast
6:36 PM 29.3 °F - 24.8 °F 83% 29.78 in 10.0 mi Calm Calm - N/A   Mostly Cloudy
6:56 PM 29.3 °F - 25.2 °F 85% 29.78 in 10.0 mi Calm Calm - N/A   Overcast
7:16 PM 28.9 °F - 25.5 °F 87% 29.79 in 10.0 mi Calm Calm - N/A   Overcast
7:36 PM 28.9 °F - 25.3 °F 86% 29.79 in 10.0 mi Calm Calm - N/A   Overcast
7:56 PM 28.8 °F - 25.5 °F 88% 29.79 in 7.0 mi Calm Calm - N/A   Overcast
8:16 PM 28.8 °F - 25.7 °F 88% 29.80 in 7.0 mi Calm Calm - N/A Snow Light Snow
8:36 PM 28.4 °F - 25.9 °F 90% 29.80 in 5.0 mi Calm Calm - N/A Snow Light Snow
8:56 PM 28.0 °F - 25.7 °F 91% 29.80 in 7.0 mi Calm Calm - N/A Snow Light Snow
9:16 PM 27.1 °F - 25.7 °F 94% 29.80 in 7.0 mi Calm Calm - N/A Snow Light Snow
9:36 PM 27.1 °F - 26.6 °F 98% 29.80 in 10.0 mi Calm Calm - N/A   Overcast
9:56 PM 26.8 °F - 26.1 °F 97% 29.80 in 10.0 mi Calm Calm - N/A   Overcast
10:16 PM 25.7 °F - 25.3 °F 99% 29.80 in 10.0 mi Calm Calm - N/A   Scattered Clouds
10:36 PM 25.2 °F - 25.2 °F 100% 29.80 in 10.0 mi Calm Calm - N/A   Mostly Cloudy
10:56 PM 24.1 °F - 24.1 °F 100% 29.80 in 4.0 mi Calm Calm - N/A   Overcast
11:16 PM 24.8 °F - 24.8 °F 100% 29.80 in 10.0 mi Calm Calm - N/A   Mostly Cloudy
11:36 PM 24.1 °F - 24.1 °F 100% 29.80 in 10.0 mi Calm Calm - N/A   Scattered Clouds
11:56 PM 24.6 °F - 24.6 °F 100% 29.80 in 10.0 mi Calm Calm - N/A   Scattered Clouds